Regional Weather Roundup
Issued by NWS

Home | Current Version | Previous Version | Text Only | Print | Product List | Glossary On
Versions: 1 2 3 4 5 6 7 8 9 10 11 12 13 14 15 16 17 18 19 20 21 22 23 24 25 26 27 28 29 30 31 32 33 34 35 36 37 38 39 40 41 42 43 44 45 46 47 48 49 50
000
ASUS43 KMPX 270901
RWRMN
WEATHER ROUNDUP FOR MINNESOTA
NATIONAL WEATHER SERVICE TWIN CITIES/CHANHASSEN MN
400 AM CDT TUE JUN 27 2017


NOTE: "FAIR" INDICATES FEW OR NO CLOUDS BELOW 12,000 FEET WITH NO
SIGNIFICANT WEATHER AND/OR OBSTRUCTIONS TO VISIBILITY. N/A MEANS
CURRENT SKY AND/OR WEATHER CONDITIONS ARE NOT AVAILABLE.

MNZ060>063-068>070-271000-
   Twin Cities Metro

CITY           SKY/WX    TMP DP  RH WIND       PRES   REMARKS
TWIN CITIES    CLEAR     56  46  69 SW3       30.09F
ST PAUL        CLEAR     52  50  93 CALM      30.10S
CRYSTAL        CLEAR     49  43  80 CALM      30.08S
BLAINE         CLEAR     50  45  81 CALM      30.08S
LAKEVILLE      CLEAR     48  45  87 CALM      30.10S
EDEN PRAIRIE   CLEAR     53  46  77 SW3       30.09S
SOUTH ST PAUL  CLEAR     54  46  72 CALM      30.10R
LAKE ELMO      FAIR      48  46  93 CALM      30.10S
$$
MNZ001>005-007-008-013>017-022>024-027-028-271000-
   Northwest Minnesota

CITY           SKY/WX    TMP DP  RH WIND       PRES   REMARKS
BEMIDJI        CLEAR     47  42  81 S5        30.02F
HALLOCK        CLEAR     43  39  87 S7        29.94F
ROSEAU         CLEAR     45  41  87 S7        29.96F
WARROAD        CLEAR     50  45  81 S5        29.97F
CROOKSTON      CLEAR     46  41  81 S7        29.99F
FOSSTON        CLEAR     43  39  87 S6        30.02S
DETROIT LAKES  CLEAR     52  43  71 SW3       30.05S
MOORHEAD       CLEAR     54  41  62 S9        30.02F
PARK RAPIDS    CLEAR     50  40  68 S3        30.04F
MAHNOMEN       FAIR      49  42  76 S8        30.02S
$$
MNZ006-009>011-018-025>026-271000-
   North Central Minnesota

CITY           SKY/WX    TMP DP  RH WIND       PRES   REMARKS
BAUDETTE       CLEAR     47  42  83 SW3       29.98S
FLAG ISLAND    PTCLDY    55  48  76 SW8       29.95S
INTL FALLS     CLEAR     43  41  93 CALM      29.98F
WASKISH        CLEAR     46  45  93 CALM      30.00S
BIG FORK       CLEAR     39  39 100 CALM      30.02S
LONGVILLE      CLEAR     43  41  93 CALM      30.04F
GRAND RAPIDS   CLEAR     45  44  97 CALM      30.05F
CRANE LAKE     CLEAR     39  39 100 CALM      30.01F
ORR            CLEAR     45  43  93 CALM      29.99S
COOK           CLEAR     43  43 100 CALM      30.02S
WALKER         FAIR      43  40  91 SW5       30.04S
$$
MNZ012-019>021-037-271000-
   Northeast Minnesota

CITY           SKY/WX    TMP DP  RH WIND       PRES   REMARKS
DULUTH         CLEAR     47  43  86 W6        30.03S
ELY            CLEAR     46  45  93 CALM      30.01S
HIBBING        CLEAR     38  38 100 CALM      30.02F
EVELETH        CLEAR     44  41  89 CALM      30.03S
DULUTH HARBOR  CLEAR     52  46  82 SW10      30.03S
TWO HARBORS    CLEAR     54  46  76 NW5       30.00S
SILVER BAY     CLEAR     45  45 100 CALM      29.99F
GRAND MARAIS     N/A     47  46  97 CALM      29.98S
G MARAIS ARPRT CLEAR     46  43  87 CALM      30.00S
$$
MNZ029>031-032-039>041-046>048-054>057-064-271000-
   West Central Minnesota

CITY           SKY/WX    TMP DP  RH WIND       PRES   REMARKS
FERGUS FALLS   CLEAR     54  43  66 S7        30.04S
WHEATON        CLEAR     54  41  62 S8        30.07F
MORRIS         CLEAR     52  43  71 S6        30.07S
ALEXANDRIA     CLEAR     51  42  71 SW8       30.08F
ELBOW LAKE     FAIR      48  44  84 S7        30.06F
WADENA         CLEAR     45  39  81 CALM      30.05F
GLENWOOD       CLEAR     50  45  81 SW3       30.08F
APPLETON       CLEAR     54  43  66 S5        30.07F
BENSON         CLEAR     52  43  71 SW3       30.09F
ORTONVILLE     CLEAR     52  41  66 S3        30.07F
MADISON        CLEAR     50  45  81 S5        30.08F
WILLMAR        FAIR      48  43  81 CALM      30.10F
$$
MNZ033>034-036-042>043-049>051-058-059-271000-
   Central Minnesota

CITY           SKY/WX    TMP DP  RH WIND       PRES   REMARKS
ST CLOUD       CLEAR     43  43 100 CALM      30.08S
SAUK CENTRE    FAIR      46  41  85 CALM      30.08F
PAYNESVILLE    CLEAR     43  43 100 CALM      30.09F
AITKIN         CLEAR     41  39  93 CALM      30.04F FOG
PINE RIVER     CLEAR     43  41  93 CALM      30.09S
BRAINERD       CLEAR     44  42  93 S5        30.06F
STAPLES        CLEAR     45  41  87 S3        30.06F
LONG PRAIRIE   FAIR      46  45  93 S5        30.08S
LITTLE FALLS   CLEAR     41  37  87 CALM      30.07F
BUFFALO        CLEAR     51  45  80 CALM      30.10F
MAPLE LAKE     CLEAR     48  46  95 CALM      30.10S
HUTCHINSON     CLEAR     47  45  94 CALM      30.11S
$$
MNZ037-044-045-052-053-271000-
   East Central Minnesota

CITY           SKY/WX    TMP DP  RH WIND       PRES   REMARKS
PRINCETON      CLEAR     45  43  93 CALM      30.08F
MORA           CLEAR     45  43  93 CALM      30.09S
CAMBRIDGE      CLEAR     48  41  76 CALM      30.06F
RUSH CITY      MOCLDY    46  45  93 CALM      30.07F
MOOSE LAKE     CLEAR     45  41  87 S3        30.03F
HINCKLEY       FAIR      46  45  93 CALM      30.06F
CLOQUET        CLEAR     50  41  71 W7        30.04S
MCGREGOR       CLEAR     46  43  87 CALM      30.05F
$$
MNZ071>073-080-081-089-090-097-098-271000-
   Southwest Minnesota

CITY           SKY/WX    TMP DP  RH WIND       PRES   REMARKS
MONTEVIDEO     CLEAR     50  41  71 SW5       30.09F
GRANITE FALLS  CLEAR     48  44  85 S5        30.11S
CANBY          CLEAR     56  41  58 CALM      30.10F
MARSHALL       CLEAR     51  43  74 SW7       30.10F
REDWOOD FALLS  CLEAR     51  41  68 SW6       30.10F
OLIVIA         CLEAR     50  41  71 CALM      30.09F
PIPESTONE      CLEAR     55  39  54 S7        30.10F
WINDOM         CLEAR     46  43  87 CALM      30.13S
WORTHINGTON    CLEAR     50  42  74 S7        30.13F
JACKSON        CLEAR     52  45  76 CALM      30.13F
TRACY          CLEAR     55  44  66 S8        30.11F
SLAYTON        CLEAR     49  41  73 S5        30.13F
$$
MNZ065>067-074>077-082>085-091>093-271000-
   South Central Minnesota

CITY           SKY/WX    TMP DP  RH WIND       PRES   REMARKS
MANKATO        CLEAR     50  44  80 S3        30.12S
NEW ULM        CLEAR     46  41  81 SW3       30.11S
ST JAMES       CLEAR     50  43  76 S3        30.13S
FAIRMONT       CLEAR     48  44  86 SW5       30.13F
GLENCOE        CLEAR     50  48  93 CALM      30.09F
FARIBAULT      PTCLDY    48  46  93 CALM      30.11S
OWATONNA       CLEAR     50  45  81 CALM      30.12S
WASECA         CLEAR     48  43  81 CALM      30.13S
ALBERT LEA     CLEAR     48  46  93 CALM      30.13S
$$
MNZ078>079-086>088-094>096-271000-
   Southeast Minnesota

CITY           SKY/WX    TMP DP  RH WIND       PRES   REMARKS
ROCHESTER      CLEAR     48  45  89 SW6       30.12F
RED WING       CLEAR     46  45  93 CALM      30.09S
STANTON        CLEAR     51  46  83 S5        30.10S
DODGE CENTER   CLEAR     48  43  81 SW6       30.12F
WINONA         CLEAR     48  46  93 CALM      30.11S
AUSTIN         CLEAR     46  43  87 CALM      30.12F
PRESTON        CLEAR     52  44  74 SW8       30.13S
$$
ABBREVIATIONS USED IN REMARKS
   TC - TEMPERATURES IN CELSIUS
  WCI - WIND CHILL INDEX
   HX - HEAT INDEX
  VSB - VISIBILITY
$$



USA.gov is the U.S. government's official web portal to all federal, state and local government web resources and services.